Location: Bouchavesnes-Bergen
(49.9859°N, 2.9203°E)
Time: 10:59:07
(UTC+00:00)

FENGYUN 1C DEB - Visible Passes

Search period start: 21 September 2021 00:00
Search period end: 01 October 2021 00:00
Orbit: 467 x 531 km, 99.5° (Epoch: 20 September)

Date Brightness Start Highest point End Pass type
(mag) Time Alt. Az. Time Alt. Az. Time Alt. Az.
21 Sep ? 05:00:16 10° SE 05:03:49 51° ENE 05:07:29 10° N visible
21 Sep ? 19:32:00 10° N 19:35:33 36° WNW 19:39:05 10° SW visible
22 Sep ? 04:40:43 10° SE 04:43:59 31° ENE 04:47:20 10° N visible
22 Sep ? 19:11:52 10° N 19:15:41 59° WNW 19:19:27 10° SSW visible
23 Sep ? 04:21:25 10° ESE 04:24:11 20° ENE 04:26:59 10° NNE visible
23 Sep ? 18:51:51 10° NNE 18:55:43 82° ESE 18:59:34 10° SSW visible
23 Sep ? 20:26:53 10° NNW 20:28:40 13° NW 20:30:27 10° W visible
24 Sep ? 04:02:31 10° E 04:04:24 13° NE 04:06:18 10° NNE visible
24 Sep ? 18:31:55 10° NNE 18:35:40 48° ESE 18:39:24 10° S visible
24 Sep ? 20:06:05 10° NNW 20:08:52 19° WNW 20:11:39 10° WSW visible
25 Sep ? 18:12:08 10° NE 18:15:32 29° E 18:18:54 10° SSE visible
25 Sep ? 19:45:38 10° N 19:49:00 29° WNW 19:52:21 10° SW visible
26 Sep ? 04:53:55 10° SE 04:57:22 38° ENE 05:00:55 10° N visible
26 Sep ? 19:25:19 10° N 19:29:03 47° WNW 19:32:44 10° SW visible
27 Sep ? 04:34:22 10° ESE 04:37:25 24° ENE 04:40:33 10° N visible
27 Sep ? 19:05:07 10° NNE 19:08:59 80° WNW 19:12:49 10° SSW visible
27 Sep ? 20:40:49 10° NW 20:41:48 11° NW 20:42:47 10° WNW visible
28 Sep ? 04:15:08 10° E 04:17:30 16° ENE 04:19:54 10° NNE visible
28 Sep ? 18:45:02 10° NNE 18:48:51 60° ESE 18:52:37 10° S visible
28 Sep ? 20:19:30 10° NNW 20:21:55 16° WNW 20:24:21 10° W visible
29 Sep ? 03:56:41 10° ENE 03:57:37 11° NE 03:58:33 10° NE visible
29 Sep ? 18:25:03 10° NNE 18:28:36 35° E 18:32:07 10° SSE visible
29 Sep ? 19:58:48 10° N 20:01:57 25° WNW 20:05:05 10° WSW visible
30 Sep ? 05:06:42 10° SE 05:10:18 48° ENE 05:13:59 10° N visible
30 Sep ? 18:05:16 10° NE 18:08:16 21° E 18:11:15 10° SSE visible
30 Sep ? 19:38:18 10° N 19:41:54 38° WNW 19:45:27 10° SW visible
